Regional Weather Roundup
Issued by NWS

Home | Current Version | Previous Version | Graphics & Text | Print | Product List | Glossary On
Versions: 1 2 3 4 5 6 7 8 9 10 11 12 13 14 15 16 17 18 19 20 21 22 23 24 25 26 27 28 29 30 31 32 33 34 35 36 37 38 39 40 41 42 43 44 45 46 47 48 49 50
000
ASUS43 KFSD 102310
RWRSD

WEATHER ROUNDUP FOR SOUTH DAKOTA
NATIONAL WEATHER SERVICE SIOUX FALLS SD
500 PM CST SAT DEC 10 2016

NOTE: "FAIR" INDICATES FEW OR NO CLOUDS BELOW 12,000 FEET WITH NO
SIGNIFICANT WEATHER AND/OR OBSTRUCTIONS TO VISIBILITY.


SDZ001>005-009-010-012>017-110000-
NORTHWEST AND NORTH CENTRAL SOUTH DAKOTA

CITY           SKY/WX    TMP DP  RH WIND       PRES   REMARKS
BUFFALO          N/A      2  -4  76 E16       29.71S WCI -18
FAITH            N/A      3   0  87 SE13      29.83F WCI -14
MOBRIDGE       LGT SNOW   4  -3  73 E16       29.94F WCI -15
$$

SDZ012>016-024>037-041>051-057-063-072>074-110000-
SOUTHWEST AND SOUTH CENTRAL SOUTH DAKOTA

CITY           SKY/WX    TMP DP  RH WIND       PRES   REMARKS
RAPID CTY ARPT CLOUDY     6   1  80 E9        29.75F WCI  -8
PIERRE         CLOUDY     6   1  80 E17       29.93F WCI -13
CUSTER         CLOUDY    36  26  67 SW9       29.57F
ELLSWORTH AFB  CLOUDY     5   1  83 E10       29.73F WCI -10
PHILIP         CLOUDY     6   3  87 E13       29.86F WCI -10
PINE RIDGE     CLOUDY    16  12  84 E8        29.71F WCI   5
SPEARFISH      FAIR       7   3  85 E7        29.64F WCI  -5
WINNER         CLOUDY    20  17  88 E13       29.87S WCI   7
$$

SDZ004>011-016>023-039-040-110000-
NORTHEAST SOUTH DAKOTA

CITY           SKY/WX    TMP DP  RH WIND       PRES   REMARKS
ABERDEEN       LGT SNOW   6   0  76 E13       30.10F WCI -10
WATERTOWN      LGT SNOW   3  -2  79 E12G21    30.07F WCI -13
BROOKINGS      LGT SNOW   9   5  85 E9        30.06S VSB 1   WCI  -5
SISSETON         N/A      4  -1  80 SE7       30.19F WCI  -8
$$

SDZ017-020-022-023-036>040-048>070-110000-
SOUTHEAST SOUTH DAKOTA

CITY           SKY/WX    TMP DP  RH WIND       PRES   REMARKS
SIOUX FALLS    LGT SNOW  16  14  92 E16       30.05S VSB 3/4 WCI   1
HURON          LGT SNOW  13  10  88 E12       30.04F FOG     WCI  -1
CHAMBERLAIN    CLOUDY    18  16  92 E10G16    29.93F WCI   6
MITCHELL       CLOUDY    18  15  88 SE18      30.03F WCI   2
YANKTON        CLOUDY    23  18  80 SE13      29.99F WCI  11
$$

ABBREVIATIONS USED IN REMARKS
   TC - TEMPERATURE IN CELSIUS
  WCI - WIND CHILL INDEX
   HX - HEAT INDEX
  VSB - VISIBILITY





USA.gov is the U.S. government's official web portal to all federal, state and local government web resources and services.